Location: Hat Ranch Observatory
(35.4668°N, 106.0752°W)
Time: 13:08:05
(UTC-06:00)

X-37B - Pass Details

Date: 30 January 2022
Orbit: 329 x 342 km, 45.0° (Epoch: 18 May)

Event Time Altitude Azimuth Distance (km) Brightness Sun altitude
Rises 19:12:24 0° 296° (WNW) 2,110 5.3 -20.9°
Reaches altitude 10° 19:15:18 10° 328° (NNW) 1,269 3.5 -21.5°
Enters shadow 19:15:38 11° 335° (NNW) 1,213 3.3 -21.6°
